Location: Arborea
(39.7744°N, 8.5819°E)
Time: 21:05:07
(UTC+00:00)

CZ-2C DEB - Pass Details

Date: 20 August 2022
Orbit: 681 x 927 km, 97.9° (Epoch: 03 October)

Event Time Altitude Azimuth Distance (km) Brightness Sun altitude
Rises 20:33:54 0° 22° (NNE) 3,280 ? -24.0°
Reaches altitude 10° 20:36:21 10° 31° (NNE) 2,386 ? -24.4°
Enters shadow 20:39:36 30° 62° (ENE) 1,447 ? -24.8°
